Regional Weather Roundup
Issued by NWS

Home | Current Version | Previous Version | Text Only | Print | Product List | Glossary On
Versions: 1 2 3 4 5 6 7 8 9 10 11 12 13 14 15 16 17 18 19 20 21 22 23 24 25 26 27
000
ASUS46 KSEW 292310
RWRWA

WASHINGTON REGIONAL WEATHER ROUNDUP
NATIONAL WEATHER SERVICE SEATTLE WA
400 PM PDT WED MAR 29 2017

NOTE:"FAIR" INDICATES FEW OR NO CLOUDS BELOW 12,000 FEET WITH NO
SIGNIFICANT WEATHER AND/OR OBSTRUCTIONS TO VISIBILITY.

WAZ507-509-555>559-300000-
SEATTLE, TACOMA, EVERETT, AND VICINITY

CITY           SKY/WX    TMP DP  RH WIND       PRES   REMARKS
EVERETT        CLOUDY    54  46  74 S20G32    29.85R
BOEING FIELD   PTSUNNY   56  49  77 S21G28    29.87S
RENTON         MOSUNNY   56  51  84 S17G28    29.87S
SEATAC AIRPORT PTSUNNY   54  50  86 SW22G29   29.88S
JBLM-MCCHORD   PTSUNNY   54  53  95 SW22G31   29.90R
PUYALLUP         N/A     54  50  87 S10G20    29.91R
BREMERTON      PTSUNNY   54  46  76 S24G30    29.89R
JBLM-FT LEWIS  PTSUNNY   53  53  99 S14G24    29.91R
TACOMA NARROWS PTSUNNY   51  48  89 SW18G25   29.90R
$$

WAZ001-503-506-510-514-515-300000-
NORTH INTERIOR

CITY           SKY/WX    TMP DP  RH WIND       PRES   REMARKS
BELLINGHAM     CLOUDY    54  47  77 S9        29.80R
FRIDAY HARBOR  SUNNY     54  43  66 W15G25    29.83R
EASTSOUND      SUNNY     54  43  66 W14G26    29.79R
PORT ANGELES   CLOUDY    51  41  68 NW21G35   29.83R
EDIZ HOOK      FAIR      52  42  71 W30G37    29.83R
PORT TOWNSEND  CLOUDY    50  46  87 NW8G16    29.84R
NAS WHIDBEY    PTSUNNY   52  42  69 W16       29.88R
ARLINGTON      CLOUDY    55  41  58 SW21G26   29.85R
BURLINGTON     CLOUDY    50  45  81 W9G20     29.83R
$$

WAZ020-022-039-040-504-511-512-300000-
SOUTHWEST INTERIOR

CITY           SKY/WX    TMP DP  RH WIND       PRES   REMARKS
SHELTON        LGT RAIN  51  48  89 SW18G25   29.89R FOG
OLYMPIA        CLOUDY    52  48  86 SW16G22   29.93R
CHEHALIS       PTSUNNY   52  48  87 VRB7G14   29.96R FOG
KELSO          CLOUDY    58  50  75 W10G18    29.98S
VANCOUVER      CLOUDY    56  53  90 S8        29.99F
SCAPPOOSE, OR  LGT RAIN  57  55  93 S8        29.97S
PORTLAND, OR   PTSUNNY   55  50  83 S14       30.00F
$$

WAZ021-516-517-300000-
WASHINGTON COAST

CITY           SKY/WX    TMP DP  RH WIND       PRES   REMARKS
FORKS          CLOUDY    49  46  90 SW16      29.93R
HOQUIAM        CLOUDY    49  45  86 W18       29.97R
ASTORIA, OR    LGT RAIN  50  46  86 W13       30.01R
$$

WAZ019-023-024-040-567>569-300000-
CASCADE MOUNTAINS AND COLUMBIA GORGE

CITY           SKY/WX    TMP DP  RH WIND       PRES   REMARKS
STAMPEDE PASS  NOT AVBL
TROUTDALE, OR  CLOUDY    57  51  80 SW15G22   30.00S
THE DALLES, OR PTSUNNY   60  51  72 NE5       29.90F
$$

WAZ026-027-041>044-520-521-300000-
EAST SLOPES

CITY           SKY/WX    TMP DP  RH WIND       PRES   REMARKS
OMAK           CLOUDY    50  41  71 S14G24    29.79F
WENATCHEE      CLOUDY    49  44  83 CALM      29.81F
ELLENSBURG     PTSUNNY   54  43  66 NW6       29.82F
YAKIMA         CLOUDY    64  46  52 S8        29.80F
SUNNYSIDE ARPT CLOUDY    57  44  62 S15       29.86S
$$

WAZ028-034-035-300000-
COLUMBIA BASIN

CITY           SKY/WX    TMP DP  RH WIND       PRES   REMARKS
EPHRATA        CLOUDY    53  43  68 SW9       29.81F
MOSES LAKE     CLOUDY    57  45  64 S10       29.82F
PASCO          CLOUDY    57  47  69 S16       29.90F
HERMISTON, OR  CLOUDY    57  50  77 CALM      29.92R
$$

WAZ036>038-300000-
NORTHEAST WASHINGTON

CITY           SKY/WX    TMP DP  RH WIND       PRES   REMARKS
SPOKANE GEIGER CLOUDY    50  45  83 SW14      29.85F
SPOKANE FELTS  CLOUDY    51  48  89 SW6       29.86F
FAIRCHILD AFB  CLOUDY    49  49 100 SW16G22   29.83F
COEURDALENE,ID LGT RAIN  45  44  97 S10       29.88S
DEER PARK      CLOUDY    44  42  93 MISG      29.86F
$$

WAZ029>033-300000-
SOUTHEAST WASHINGTON

CITY           SKY/WX    TMP DP  RH WIND       PRES   REMARKS
PULLMAN        CLOUDY    50  46  86 S10       29.92F
LEWISTON, ID   CLOUDY    52  48  86 NE6       29.91F
WALLA WALLA    CLOUDY    59  52  77 SW12      29.91S
PENDLETON, OR  CLOUDY    54  51  90 NE6       29.91F
$$




USA.gov is the U.S. government's official web portal to all federal, state and local government web resources and services.